Location: ?????????
(38.0736°N, 23.2119°E)
Time: 09:08:46
(UTC+00:00)

USA 245 - Visible Passes

Search period start: 24 July 2024 00:00
Search period end: 03 August 2024 00:00
Orbit: 266 x 992 km, 97.9° (Epoch: 20 July)

Date Brightness Start Highest point End Pass type
(mag) Time Alt. Az. Time Alt. Az. Time Alt. Az.
24 Jul 5.7 18:29:48 10° ESE 18:34:39 25° ENE 18:39:22 10° NNE visible
24 Jul 5.0 20:07:08 27° SSW 20:10:27 54° W 20:16:21 10° NNW visible
25 Jul 5.2 18:49:57 16° SE 18:54:18 36° ENE 18:59:36 10° N visible
25 Jul 5.6 20:27:18 24° SW 20:30:20 37° W 20:35:49 10° NNW visible
26 Jul 4.7 19:10:03 22° SE 19:13:57 52° ENE 19:19:35 10° N visible
26 Jul 6.1 20:47:23 18° SW 20:50:11 25° W 20:54:58 10° NW visible
27 Jul 4.4 19:30:05 28° SSE 19:33:35 76° ENE 19:39:20 10° N visible
27 Jul 6.6 21:07:25 13° WSW 21:10:00 16° W 21:13:37 10° NW visible
28 Jul 6.0 18:13:42 10° ESE 18:17:30 17° ENE 18:21:04 10° NNE visible
28 Jul 4.5 19:50:04 31° S 19:53:11 75° WSW 19:58:53 10° NNW visible
28 Jul 6.9 21:29:46 10° W 21:29:48 10° W 21:29:52 10° W visible
29 Jul 5.6 18:32:40 12° ESE 18:36:51 25° ENE 18:41:17 10° NNE visible
29 Jul 5.0 20:10:00 30° SSW 20:12:45 51° W 20:18:13 10° NNW visible
30 Jul 5.1 18:52:32 19° SE 18:56:13 35° ENE 19:01:09 10° N visible
30 Jul 5.6 20:29:51 25° SW 20:32:16 34° W 20:37:19 10° NNW visible
31 Jul 4.6 19:12:20 26° SE 19:15:33 52° ENE 19:20:46 10° N visible
31 Jul 6.1 20:49:39 19° WSW 20:51:45 23° W 20:56:04 10° NW visible
01 Aug 4.2 19:32:05 33° SSE 19:34:52 76° ENE 19:40:10 10° N visible
01 Aug 6.5 21:09:24 13° WSW 21:11:12 15° W 21:14:13 10° WNW visible
02 Aug 5.9 18:15:02 10° ESE 18:18:20 16° ENE 18:21:25 10° NNE visible
02 Aug 4.3 19:51:47 38° S 19:54:08 73° WSW 19:59:23 10° NNW visible
